Location: Unspecified
(35.6961°N, 0.0000°E)
Time: 05:05:11
(UTC+00:00)

Altair - Pass Details

Date: 28 May 2019
Orbit: 1501 x 1683 km, 47.2° (Epoch: 18 June)

Event Time Altitude Azimuth Distance (km) Brightness Sun altitude
Rises 11:37:00 0° 288° (WNW) 4,887 10.0 75.1°
Reaches altitude 10° 11:42:22 10° 266° (W) 3,860 9.7 75.4°
Maximum altitude 11:46:39 14° 239° (WSW) 3,531 9.7 75.6°
Drops below altitude 10° 11:50:54 10° 212° (SSW) 3,788 9.9 75.7°
Sets 11:56:07 0° 188° (S) 4,727 10.3 75.8°
